Time,TemperatureF,DewpointF,PressureIn,WindDirection,WindDirectionDegrees,WindSpeedMPH,WindSpeedGustMPH,Humidity,HourlyPrecipIn,Conditions,Clouds,dailyrainin,SoftwareType,DateUTC
2013-01-18 00:04:00,35.4,34.0,30.09,WNW,283,0.0,0.0,90,0.00,,,-99.99,wx200d/1.3,2013-01-18 08:04:00,
2013-01-18 00:09:00,35.4,34.0,30.09,WNW,286,0.0,0.0,90,0.00,,,-99.99,wx200d/1.3,2013-01-18 08:09:00,
2013-01-18 00:14:00,35.2,34.0,30.09,WNW,284,0.0,0.0,90,0.00,,,-99.99,wx200d/1.3,2013-01-18 08:14:00,
2013-01-18 00:19:00,35.4,34.0,30.09,WNW,283,0.0,0.0,90,0.00,,,-99.99,wx200d/1.3,2013-01-18 08:19:00,
2013-01-18 00:24:00,35.2,34.0,30.09,WNW,283,0.0,0.0,90,0.00,,,-99.99,wx200d/1.3,2013-01-18 08:24:00,
2013-01-18 00:29:00,35.2,34.0,30.09,WNW,285,0.0,0.0,90,0.00,,,-99.99,wx200d/1.3,2013-01-18 08:29:00,
2013-01-18 00:34:00,35.4,34.0,30.09,WSW,249,0.0,0.0,90,0.00,,,-99.99,wx200d/1.3,2013-01-18 08:34:00,
2013-01-18 00:39:00,35.4,34.0,30.09,WSW,248,0.0,0.0,90,0.00,,,-99.99,wx200d/1.3,2013-01-18 08:39:00,
2013-01-18 00:44:00,35.2,34.0,30.09,WSW,249,0.0,0.0,90,0.00,,,-99.99,wx200d/1.3,2013-01-18 08:44:00,
2013-01-18 00:49:00,35.2,34.0,30.09,WSW,245,0.0,0.0,90,0.00,,,-99.99,wx200d/1.3,2013-01-18 08:49:00,
2013-01-18 00:54:00,35.2,34.0,30.09,WSW,251,0.0,0.0,90,0.00,,,-99.99,wx200d/1.3,2013-01-18 08:54:00,
2013-01-18 00:59:00,35.2,34.0,30.09,WSW,251,0.0,0.0,91,0.00,,,-99.99,wx200d/1.3,2013-01-18 08:59:00,
2013-01-18 01:04:00,35.2,34.0,30.09,WSW,251,0.0,0.0,91,0.00,,,-99.99,wx200d/1.3,2013-01-18 09:04:00,
2013-01-18 01:09:00,35.1,34.0,30.09,WSW,244,0.0,0.0,91,0.00,,,-99.99,wx200d/1.3,2013-01-18 09:09:00,
2013-01-18 01:14:00,35.1,34.0,30.09,WSW,244,0.0,0.0,91,0.00,,,-99.99,wx200d/1.3,2013-01-18 09:14:00,
2013-01-18 01:19:00,35.2,34.0,30.09,WSW,249,0.0,0.0,91,0.00,,,-99.99,wx200d/1.3,2013-01-18 09:19:00,
2013-01-18 01:24:00,35.1,34.0,30.09,WSW,251,0.0,0.0,91,0.00,,,-99.99,wx200d/1.3,2013-01-18 09:24:00,
2013-01-18 01:29:00,34.9,34.0,30.09,WSW,248,0.0,0.0,91,0.00,,,-99.99,wx200d/1.3,2013-01-18 09:29:00,
2013-01-18 01:35:00,34.9,34.0,30.09,WSW,251,0.0,0.0,91,0.00,,,-99.99,wx200d/1.3,2013-01-18 09:35:00,
2013-01-18 01:40:00,34.7,34.0,30.09,WSW,246,0.0,0.0,91,0.00,,,-99.99,wx200d/1.3,2013-01-18 09:40:00,
2013-01-18 01:45:00,34.7,34.0,30.09,WSW,244,0.0,0.0,91,0.00,,,-99.99,wx200d/1.3,2013-01-18 09:45:00,
2013-01-18 01:50:00,34.7,34.0,30.09,WSW,251,0.0,0.0,91,0.00,,,-99.99,wx200d/1.3,2013-01-18 09:50:00,
2013-01-18 01:55:00,34.7,34.0,30.09,WSW,251,0.0,0.0,91,0.00,,,-99.99,wx200d/1.3,2013-01-18 09:55:00,
2013-01-18 02:00:00,34.7,34.0,30.09,WSW,245,0.0,0.0,91,0.00,,,-99.99,wx200d/1.3,2013-01-18 10:00:00,
2013-01-18 02:05:00,34.9,34.0,30.09,WSW,250,0.0,0.0,91,0.00,,,-99.99,wx200d/1.3,2013-01-18 10:05:00,
2013-01-18 02:10:00,34.9,34.0,30.09,WSW,249,0.0,0.0,91,0.00,,,-99.99,wx200d/1.3,2013-01-18 10:10:00,
2013-01-18 02:15:00,34.9,34.0,30.09,WSW,245,0.0,0.0,91,0.00,,,-99.99,wx200d/1.3,2013-01-18 10:15:00,
2013-01-18 02:20:00,34.7,34.0,30.09,WSW,244,0.0,0.0,91,0.00,,,-99.99,wx200d/1.3,2013-01-18 10:20:00,
2013-01-18 02:25:00,34.7,34.0,30.09,WSW,252,0.0,0.0,91,0.00,,,-99.99,wx200d/1.3,2013-01-18 10:25:00,
2013-01-18 02:30:00,34.7,34.0,30.09,WSW,245,0.0,0.0,91,0.00,,,-99.99,wx200d/1.3,2013-01-18 10:30:00,
2013-01-18 02:35:00,34.7,34.0,30.09,WSW,244,0.0,0.0,91,0.00,,,-99.99,wx200d/1.3,2013-01-18 10:35:00,
2013-01-18 02:40:00,34.7,34.0,30.09,WSW,252,0.0,0.0,91,0.00,,,-99.99,wx200d/1.3,2013-01-18 10:40:00,
2013-01-18 02:45:00,34.5,32.0,30.09,WSW,251,0.0,0.0,91,0.00,,,-99.99,wx200d/1.3,2013-01-18 10:45:00,
2013-01-18 02:50:00,34.3,32.0,30.09,WSW,244,0.0,0.0,91,0.00,,,-99.99,wx200d/1.3,2013-01-18 10:50:00,
2013-01-18 02:55:00,34.3,32.0,30.09,WSW,250,0.0,0.0,91,0.00,,,-99.99,wx200d/1.3,2013-01-18 10:55:00,
2013-01-18 03:00:00,34.3,32.0,30.09,WSW,246,0.0,0.0,91,0.00,,,-99.99,wx200d/1.3,2013-01-18 11:00:00,
2013-01-18 03:05:00,34.3,32.0,30.09,WSW,250,0.0,0.0,91,0.00,,,-99.99,wx200d/1.3,2013-01-18 11:05:00,
2013-01-18 03:10:00,34.3,32.0,30.09,WSW,246,0.0,0.0,91,0.00,,,-99.99,wx200d/1.3,2013-01-18 11:10:00,
2013-01-18 03:15:00,34.3,32.0,30.09,WSW,244,0.0,0.0,91,0.00,,,-99.99,wx200d/1.3,2013-01-18 11:15:00,
2013-01-18 03:20:00,34.2,32.0,30.09,WSW,246,0.0,0.0,91,0.00,,,-99.99,wx200d/1.3,2013-01-18 11:20:00,
2013-01-18 03:25:00,34.3,32.0,30.09,WSW,250,0.0,0.0,91,0.00,,,-99.99,wx200d/1.3,2013-01-18 11:25:00,
2013-01-18 03:30:00,34.3,32.0,30.09,WSW,242,0.0,0.0,91,0.00,,,-99.99,wx200d/1.3,2013-01-18 11:30:00,
2013-01-18 03:35:00,34.3,32.0,30.09,WSW,242,0.0,0.0,91,0.00,,,-99.99,wx200d/1.3,2013-01-18 11:35:00,
2013-01-18 03:40:00,34.2,32.0,30.09,WSW,248,0.0,0.0,91,0.00,,,-99.99,wx200d/1.3,2013-01-18 11:40:00,
2013-01-18 03:45:00,34.2,32.0,30.09,WSW,244,0.0,0.0,91,0.00,,,-99.99,wx200d/1.3,2013-01-18 11:45:00,
2013-01-18 03:50:00,34.2,32.0,30.09,WSW,242,0.0,0.0,91,0.00,,,-99.99,wx200d/1.3,2013-01-18 11:50:00,
2013-01-18 03:55:00,34.2,32.0,30.06,WSW,243,0.0,0.0,91,0.00,,,-99.99,wx200d/1.3,2013-01-18 11:55:00,
2013-01-18 04:00:00,34.3,32.0,30.06,WSW,245,0.0,0.0,91,0.00,,,-99.99,wx200d/1.3,2013-01-18 12:00:00,
2013-01-18 04:05:00,34.2,32.0,30.06,WSW,250,0.0,0.0,91,0.00,,,-99.99,wx200d/1.3,2013-01-18 12:05:00,
2013-01-18 04:10:00,34.2,32.0,30.06,WSW,247,0.0,0.0,91,0.00,,,-99.99,wx200d/1.3,2013-01-18 12:10:00,
2013-01-18 04:15:00,34.2,32.0,30.06,WSW,242,0.0,0.0,91,0.00,,,-99.99,wx200d/1.3,2013-01-18 12:15:00,
2013-01-18 04:20:00,34.2,32.0,30.06,WSW,249,0.0,0.0,91,0.00,,,-99.99,wx200d/1.3,2013-01-18 12:20:00,
2013-01-18 04:26:00,34.0,32.0,30.06,WSW,245,0.0,0.0,91,0.00,,,-99.99,wx200d/1.3,2013-01-18 12:26:00,
2013-01-18 04:31:00,34.0,32.0,30.06,WSW,250,0.0,0.0,91,0.00,,,-99.99,wx200d/1.3,2013-01-18 12:31:00,
2013-01-18 04:36:00,33.8,32.0,30.06,ESE,121,0.0,0.0,91,0.00,,,-99.99,wx200d/1.3,2013-01-18 12:36:00,
2013-01-18 04:41:00,34.0,32.0,30.06,ESE,119,0.0,0.0,91,0.00,,,-99.99,wx200d/1.3,2013-01-18 12:41:00,
2013-01-18 04:46:00,34.0,32.0,30.06,SE,126,0.0,0.0,91,0.00,,,-99.99,wx200d/1.3,2013-01-18 12:46:00,
2013-01-18 04:51:00,33.8,32.0,30.06,ESE,123,0.0,0.0,91,0.00,,,-99.99,wx200d/1.3,2013-01-18 12:51:00,
2013-01-18 04:56:00,33.6,32.0,30.06,SE,125,0.0,0.0,91,0.00,,,-99.99,wx200d/1.3,2013-01-18 12:56:00,
2013-01-18 05:01:00,33.6,32.0,30.06,SE,125,0.0,0.0,91,0.00,,,-99.99,wx200d/1.3,2013-01-18 13:01:00,
2013-01-18 05:06:00,33.6,32.0,30.06,ESE,120,0.0,0.0,92,0.00,,,-99.99,wx200d/1.3,2013-01-18 13:06:00,
2013-01-18 05:11:00,33.6,32.0,30.06,SE,127,0.0,0.0,92,0.00,,,-99.99,wx200d/1.3,2013-01-18 13:11:00,
2013-01-18 05:16:00,33.6,32.0,30.06,SE,124,0.0,0.0,92,0.00,,,-99.99,wx200d/1.3,2013-01-18 13:16:00,
2013-01-18 05:21:00,33.6,32.0,30.06,ESE,120,0.0,0.0,92,0.00,,,-99.99,wx200d/1.3,2013-01-18 13:21:00,
2013-01-18 05:26:00,33.8,32.0,30.06,ESE,120,0.0,0.0,92,0.00,,,-99.99,wx200d/1.3,2013-01-18 13:26:00,
2013-01-18 05:31:00,33.8,32.0,30.06,ESE,118,0.0,0.0,92,0.00,,,-99.99,wx200d/1.3,2013-01-18 13:31:00,
2013-01-18 05:36:00,33.6,32.0,30.06,ESE,120,0.0,0.0,92,0.00,,,-99.99,wx200d/1.3,2013-01-18 13:36:00,
2013-01-18 05:41:00,33.6,32.0,30.06,SE,128,0.0,0.0,92,0.00,,,-99.99,wx200d/1.3,2013-01-18 13:41:00,
2013-01-18 05:46:00,33.6,32.0,30.06,ESE,119,0.0,0.0,92,0.00,,,-99.99,wx200d/1.3,2013-01-18 13:46:00,
2013-01-18 05:51:00,33.6,32.0,30.06,SE,128,0.0,0.0,92,0.00,,,-99.99,wx200d/1.3,2013-01-18 13:51:00,
2013-01-18 05:56:00,33.6,32.0,30.06,SE,127,0.0,0.0,92,0.00,,,-99.99,wx200d/1.3,2013-01-18 13:56:00,
2013-01-18 06:01:00,33.6,32.0,30.06,SE,126,0.0,0.0,92,0.00,,,-99.99,wx200d/1.3,2013-01-18 14:01:00,
2013-01-18 06:06:00,33.6,32.0,30.06,ESE,122,0.0,0.0,92,0.00,,,-99.99,wx200d/1.3,2013-01-18 14:06:00,
2013-01-18 06:11:00,33.8,32.0,30.06,SE,127,0.0,0.0,92,0.00,,,-99.99,wx200d/1.3,2013-01-18 14:11:00,
2013-01-18 06:16:00,33.8,32.0,30.06,ESE,119,0.0,0.0,92,0.00,,,-99.99,wx200d/1.3,2013-01-18 14:16:00,
2013-01-18 06:21:00,33.8,32.0,30.06,SE,128,0.0,0.0,92,0.00,,,-99.99,wx200d/1.3,2013-01-18 14:21:00,
2013-01-18 06:26:00,33.8,32.0,30.06,SE,124,0.0,0.0,92,0.00,,,-99.99,wx200d/1.3,2013-01-18 14:26:00,
2013-01-18 06:31:00,33.8,32.0,30.06,SE,126,0.0,0.0,92,0.00,,,-99.99,wx200d/1.3,2013-01-18 14:31:00,
2013-01-18 06:36:00,33.8,32.0,30.06,SE,128,0.0,0.0,92,0.00,,,-99.99,wx200d/1.3,2013-01-18 14:36:00,
2013-01-18 06:41:00,33.6,32.0,30.06,SE,128,0.0,0.0,92,0.00,,,-99.99,wx200d/1.3,2013-01-18 14:41:00,
2013-01-18 06:46:00,33.6,32.0,30.06,ESE,119,0.0,0.0,92,0.00,,,-99.99,wx200d/1.3,2013-01-18 14:46:00,
2013-01-18 06:51:00,33.8,32.0,30.06,SE,124,0.0,0.0,92,0.00,,,-99.99,wx200d/1.3,2013-01-18 14:51:00,
2013-01-18 06:56:00,33.6,32.0,30.06,NE,46,0.0,0.0,92,0.00,,,-99.99,wx200d/1.3,2013-01-18 14:56:00,
2013-01-18 07:01:00,33.4,32.0,30.06,NE,47,0.0,0.0,92,0.00,,,-99.99,wx200d/1.3,2013-01-18 15:01:00,
2013-01-18 07:06:00,33.4,32.0,30.06,NE,50,0.0,0.0,92,0.00,,,-99.99,wx200d/1.3,2013-01-18 15:06:00,
2013-01-18 07:11:00,33.6,32.0,30.06,NE,49,0.0,0.0,92,0.00,,,-99.99,wx200d/1.3,2013-01-18 15:11:00,
2013-01-18 07:16:00,33.4,32.0,30.06,NE,51,0.0,0.0,92,0.00,,,-99.99,wx200d/1.3,2013-01-18 15:16:00,
2013-01-18 07:21:00,33.4,32.0,30.06,NE,52,0.0,0.0,92,0.00,,,-99.99,wx200d/1.3,2013-01-18 15:21:00,
2013-01-18 07:26:00,33.4,32.0,30.06,NE,52,0.0,0.0,92,0.00,,,-99.99,wx200d/1.3,2013-01-18 15:26:00,
2013-01-18 07:31:00,33.3,32.0,30.06,NE,52,0.0,0.0,92,0.00,,,-99.99,wx200d/1.3,2013-01-18 15:31:00,
2013-01-18 07:36:00,33.3,32.0,30.06,SE,128,0.0,0.0,92,0.00,,,-99.99,wx200d/1.3,2013-01-18 15:36:00,
2013-01-18 07:41:00,33.3,32.0,30.06,SE,129,0.0,0.0,92,0.00,,,-99.99,wx200d/1.3,2013-01-18 15:41:00,
2013-01-18 07:46:00,33.3,32.0,30.06,SE,124,0.0,0.0,92,0.00,,,-99.99,wx200d/1.3,2013-01-18 15:46:00,
2013-01-18 07:51:00,33.3,32.0,30.06,ESE,123,0.0,0.0,92,0.00,,,-99.99,wx200d/1.3,2013-01-18 15:51:00,
2013-01-18 07:56:00,33.3,32.0,30.06,SE,129,0.0,0.0,92,0.00,,,-99.99,wx200d/1.3,2013-01-18 15:56:00,
2013-01-18 08:01:00,33.3,32.0,30.06,SE,130,0.0,0.0,92,0.00,,,-99.99,wx200d/1.3,2013-01-18 16:01:00,
2013-01-18 08:06:00,33.3,32.0,30.06,ESE,115,0.0,0.0,92,0.00,,,-99.99,wx200d/1.3,2013-01-18 16:06:00,
2013-01-18 08:11:00,33.1,32.0,30.09,ESE,108,0.0,0.0,92,0.00,,,-99.99,wx200d/1.3,2013-01-18 16:11:00,
2013-01-18 08:16:00,33.1,32.0,30.09,ESE,108,0.0,0.0,92,0.00,,,-99.99,wx200d/1.3,2013-01-18 16:16:00,
2013-01-18 08:21:00,33.1,32.0,30.09,East,100,0.0,0.0,92,0.00,,,-99.99,wx200d/1.3,2013-01-18 16:21:00,
2013-01-18 08:26:00,33.3,32.0,30.09,ESE,107,0.0,0.0,93,0.00,,,-99.99,wx200d/1.3,2013-01-18 16:26:00,
2013-01-18 08:31:00,33.4,32.0,30.09,ESE,108,0.0,0.0,93,0.00,,,-99.99,wx200d/1.3,2013-01-18 16:31:00,
2013-01-18 08:37:00,33.4,32.0,30.09,East,101,0.0,0.0,93,0.00,,,-99.99,wx200d/1.3,2013-01-18 16:37:00,
2013-01-18 08:42:00,33.6,32.0,30.09,ESE,104,0.0,0.0,93,0.00,,,-99.99,wx200d/1.3,2013-01-18 16:42:00,
2013-01-18 08:47:00,33.6,32.0,30.09,East,99,0.0,0.0,93,0.00,,,-99.99,wx200d/1.3,2013-01-18 16:47:00,
2013-01-18 08:52:00,33.8,32.0,30.09,ESE,105,0.0,0.0,93,0.00,,,-99.99,wx200d/1.3,2013-01-18 16:52:00,
2013-01-18 08:57:00,33.8,32.0,30.09,East,99,0.0,0.0,93,0.00,,,-99.99,wx200d/1.3,2013-01-18 16:57:00,
2013-01-18 09:02:00,34.0,32.0,30.09,ESE,107,0.0,0.0,93,0.00,,,-99.99,wx200d/1.3,2013-01-18 17:02:00,
2013-01-18 09:07:00,34.0,32.0,30.09,ESE,104,0.0,0.0,93,0.00,,,-99.99,wx200d/1.3,2013-01-18 17:07:00,
2013-01-18 09:12:00,34.0,32.0,30.09,East,99,0.0,0.0,93,0.00,,,-99.99,wx200d/1.3,2013-01-18 17:12:00,
2013-01-18 09:17:00,34.0,32.0,30.09,East,99,0.0,0.0,93,0.00,,,-99.99,wx200d/1.3,2013-01-18 17:17:00,
2013-01-18 09:22:00,34.2,32.0,30.09,ESE,108,0.0,0.0,93,0.00,,,-99.99,wx200d/1.3,2013-01-18 17:22:00,
2013-01-18 09:27:00,34.2,32.0,30.09,East,99,0.0,0.0,93,0.00,,,-99.99,wx200d/1.3,2013-01-18 17:27:00,
2013-01-18 09:32:00,34.0,32.0,30.09,ESE,107,0.0,0.0,93,0.00,,,-99.99,wx200d/1.3,2013-01-18 17:32:00,
2013-01-18 09:37:00,34.2,32.0,30.09,ESE,107,0.0,0.0,93,0.00,,,-99.99,wx200d/1.3,2013-01-18 17:37:00,
2013-01-18 09:42:00,34.2,32.0,30.09,East,99,0.0,0.0,93,0.00,,,-99.99,wx200d/1.3,2013-01-18 17:42:00,
2013-01-18 09:47:00,34.0,32.0,30.09,ESE,104,0.0,0.0,93,0.00,,,-99.99,wx200d/1.3,2013-01-18 17:47:00,
2013-01-18 09:52:00,34.2,32.0,30.09,East,100,0.0,0.0,93,0.00,,,-99.99,wx200d/1.3,2013-01-18 17:52:00,
2013-01-18 09:57:00,34.3,32.0,30.09,ESE,108,0.0,0.0,93,0.00,,,-99.99,wx200d/1.3,2013-01-18 17:57:00,
2013-01-18 10:02:00,34.5,32.0,30.09,ESE,103,0.0,0.0,94,0.00,,,-99.99,wx200d/1.3,2013-01-18 18:02:00,
2013-01-18 10:07:00,34.5,32.0,30.09,ESE,103,0.0,0.0,94,0.00,,,-99.99,wx200d/1.3,2013-01-18 18:07:00,
2013-01-18 10:12:00,34.5,32.0,30.09,East,99,0.0,0.0,93,0.00,,,-99.99,wx200d/1.3,2013-01-18 18:12:00,
2013-01-18 10:17:00,34.5,32.0,30.09,East,100,0.0,0.0,94,0.00,,,-99.99,wx200d/1.3,2013-01-18 18:17:00,
2013-01-18 10:22:00,34.5,32.0,30.09,East,100,0.0,0.0,93,0.00,,,-99.99,wx200d/1.3,2013-01-18 18:22:00,
2013-01-18 10:27:00,34.5,32.0,30.09,ESE,108,0.0,0.0,94,0.00,,,-99.99,wx200d/1.3,2013-01-18 18:27:00,
2013-01-18 10:32:00,34.7,34.0,30.09,East,99,0.0,0.0,93,0.00,,,-99.99,wx200d/1.3,2013-01-18 18:32:00,
2013-01-18 10:37:00,34.9,34.0,30.09,ESE,107,0.0,0.0,93,0.00,,,-99.99,wx200d/1.3,2013-01-18 18:37:00,
2013-01-18 10:42:00,35.1,34.0,30.09,East,99,0.0,0.0,93,0.00,,,-99.99,wx200d/1.3,2013-01-18 18:42:00,
2013-01-18 10:47:00,35.1,34.0,30.09,ESE,107,0.0,0.0,93,0.00,,,-99.99,wx200d/1.3,2013-01-18 18:47:00,
2013-01-18 10:52:00,35.2,34.0,30.09,East,101,0.0,0.0,93,0.00,,,-99.99,wx200d/1.3,2013-01-18 18:52:00,
2013-01-18 10:57:00,35.2,34.0,30.09,East,100,0.0,0.0,93,0.00,,,-99.99,wx200d/1.3,2013-01-18 18:57:00,
2013-01-18 11:02:00,35.1,34.0,30.09,ENE,65,0.0,0.0,93,0.00,,,-99.99,wx200d/1.3,2013-01-18 19:02:00,
2013-01-18 11:07:00,35.1,34.0,30.09,East,95,0.0,0.0,93,0.00,,,-99.99,wx200d/1.3,2013-01-18 19:07:00,
2013-01-18 11:12:00,35.2,34.0,30.09,East,98,0.0,0.0,93,0.00,,,-99.99,wx200d/1.3,2013-01-18 19:12:00,
2013-01-18 11:17:00,35.4,34.0,30.09,East,95,0.0,0.0,93,0.00,,,-99.99,wx200d/1.3,2013-01-18 19:17:00,
2013-01-18 11:22:00,35.6,34.0,30.09,East,97,0.0,0.0,93,0.00,,,-99.99,wx200d/1.3,2013-01-18 19:22:00,
2013-01-18 11:27:00,35.8,34.0,30.09,East,98,0.0,0.0,94,0.00,,,-99.99,wx200d/1.3,2013-01-18 19:27:00,
2013-01-18 11:32:00,35.8,34.0,30.09,East,101,0.0,0.0,93,0.00,,,-99.99,wx200d/1.3,2013-01-18 19:32:00,
2013-01-18 11:37:00,36.1,34.0,30.09,East,95,0.0,0.0,94,0.00,,,-99.99,wx200d/1.3,2013-01-18 19:37:00,
2013-01-18 11:42:00,36.5,36.0,30.09,East,97,0.0,0.0,94,0.00,,,-99.99,wx200d/1.3,2013-01-18 19:42:00,
2013-01-18 11:47:00,36.7,36.0,30.09,East,97,0.0,0.0,94,0.00,,,-99.99,wx200d/1.3,2013-01-18 19:47:00,
2013-01-18 11:52:00,36.9,36.0,30.09,ENE,60,0.0,0.0,94,0.00,,,-99.99,wx200d/1.3,2013-01-18 19:52:00,
2013-01-18 11:57:00,36.9,36.0,30.09,WNW,299,0.0,0.0,94,0.00,,,-99.99,wx200d/1.3,2013-01-18 19:57:00,
2013-01-18 12:02:00,36.9,36.0,30.09,WNW,299,0.0,0.0,93,0.00,,,-99.99,wx200d/1.3,2013-01-18 20:02:00,
2013-01-18 12:07:00,37.0,36.0,30.06,WNW,298,0.0,0.0,93,0.00,,,-99.99,wx200d/1.3,2013-01-18 20:07:00,
2013-01-18 12:12:00,37.2,36.0,30.06,WNW,294,0.0,0.0,93,0.00,,,-99.99,wx200d/1.3,2013-01-18 20:12:00,
2013-01-18 12:17:00,37.4,36.0,30.06,WNW,293,0.0,0.0,93,0.00,,,-99.99,wx200d/1.3,2013-01-18 20:17:00,
2013-01-18 12:22:00,37.6,36.0,30.06,WNW,297,0.0,0.0,93,0.00,,,-99.99,wx200d/1.3,2013-01-18 20:22:00,
2013-01-18 12:27:00,37.8,36.0,30.06,North,11,0.0,0.0,94,0.00,,,-99.99,wx200d/1.3,2013-01-18 20:27:00,
2013-01-18 12:32:00,37.6,36.0,30.06,NE,44,0.0,0.0,93,0.00,,,-99.99,wx200d/1.3,2013-01-18 20:32:00,
2013-01-18 12:37:00,37.4,36.0,30.06,NE,49,0.0,0.0,93,0.00,,,-99.99,wx200d/1.3,2013-01-18 20:37:00,
2013-01-18 12:42:00,37.4,36.0,30.06,NE,44,0.0,0.0,93,0.00,,,-99.99,wx200d/1.3,2013-01-18 20:42:00,
2013-01-18 12:47:00,37.6,36.0,30.06,NW,324,0.0,0.0,93,0.00,,,-99.99,wx200d/1.3,2013-01-18 20:47:00,
2013-01-18 12:52:00,37.9,36.0,30.06,NW,326,0.0,0.0,93,0.00,,,-99.99,wx200d/1.3,2013-01-18 20:52:00,
2013-01-18 12:57:00,38.1,36.0,30.06,NNW,336,0.0,0.0,94,0.00,,,-99.99,wx200d/1.3,2013-01-18 20:57:00,
2013-01-18 13:02:00,38.1,36.0,30.06,NNW,335,0.0,0.0,94,0.00,,,-99.99,wx200d/1.3,2013-01-18 21:02:00,
2013-01-18 13:07:00,38.1,36.0,30.06,NNW,335,0.0,0.0,93,0.00,,,-99.99,wx200d/1.3,2013-01-18 21:07:00,
2013-01-18 13:12:00,38.3,37.0,30.06,NNW,336,0.0,0.0,93,0.00,,,-99.99,wx200d/1.3,2013-01-18 21:12:00,
2013-01-18 13:17:00,38.5,37.0,30.06,NNW,337,0.0,0.0,93,0.00,,,-99.99,wx200d/1.3,2013-01-18 21:17:00,
2013-01-18 13:22:00,38.8,37.0,30.06,NNW,337,0.0,0.0,93,0.00,,,-99.99,wx200d/1.3,2013-01-18 21:22:00,
2013-01-18 13:27:00,38.8,37.0,30.06,NNW,338,0.0,0.0,93,0.00,,,-99.99,wx200d/1.3,2013-01-18 21:27:00,
2013-01-18 13:32:00,39.0,37.0,30.06,NNW,337,0.0,0.0,93,0.00,,,-99.99,wx200d/1.3,2013-01-18 21:32:00,
2013-01-18 13:37:00,38.8,37.0,30.06,WSW,257,0.0,0.0,93,0.00,,,-99.99,wx200d/1.3,2013-01-18 21:37:00,
2013-01-18 13:42:00,38.8,37.0,30.06,West,259,0.0,0.0,93,0.00,,,-99.99,wx200d/1.3,2013-01-18 21:42:00,
2013-01-18 13:47:00,38.7,37.0,30.06,ENE,69,0.0,0.0,92,0.00,,,-99.99,wx200d/1.3,2013-01-18 21:47:00,
2013-01-18 13:52:00,38.5,37.0,30.06,East,85,0.0,0.0,92,0.00,,,-99.99,wx200d/1.3,2013-01-18 21:52:00,
2013-01-18 13:57:00,38.1,36.0,30.06,East,99,0.0,0.0,92,0.00,,,-99.99,wx200d/1.3,2013-01-18 21:57:00,
2013-01-18 14:02:00,38.1,36.0,30.06,East,85,0.0,0.0,92,0.00,,,-99.99,wx200d/1.3,2013-01-18 22:02:00,
2013-01-18 14:07:00,38.1,36.0,30.06,ENE,74,0.0,0.0,92,0.00,,,-99.99,wx200d/1.3,2013-01-18 22:07:00,
2013-01-18 14:12:00,38.5,37.0,30.06,East,85,0.0,0.0,91,0.00,,,-99.99,wx200d/1.3,2013-01-18 22:12:00,
2013-01-18 14:17:00,38.7,37.0,30.06,WNW,295,0.0,0.0,91,0.00,,,-99.99,wx200d/1.3,2013-01-18 22:17:00,
2013-01-18 14:22:00,38.8,37.0,30.06,WNW,294,0.0,0.0,91,0.00,,,-99.99,wx200d/1.3,2013-01-18 22:22:00,
2013-01-18 14:27:00,38.8,37.0,30.06,WNW,294,0.0,0.0,91,0.00,,,-99.99,wx200d/1.3,2013-01-18 22:27:00,
2013-01-18 14:33:00,38.7,37.0,30.06,NE,43,0.0,0.0,91,0.00,,,-99.99,wx200d/1.3,2013-01-18 22:33:00,
2013-01-18 14:38:00,38.5,37.0,30.03,ENE,72,0.0,0.0,90,0.00,,,-99.99,wx200d/1.3,2013-01-18 22:38:00,
2013-01-18 14:43:00,38.5,37.0,30.03,WNW,284,0.0,0.0,90,0.00,,,-99.99,wx200d/1.3,2013-01-18 22:43:00,
2013-01-18 14:48:00,38.7,37.0,30.03,WNW,285,0.0,0.0,90,0.00,,,-99.99,wx200d/1.3,2013-01-18 22:48:00,
2013-01-18 14:53:00,38.5,37.0,30.03,NNW,337,0.0,0.0,90,0.00,,,-99.99,wx200d/1.3,2013-01-18 22:53:00,
2013-01-18 14:58:00,38.5,37.0,30.03,ENE,57,0.0,0.0,90,0.00,,,-99.99,wx200d/1.3,2013-01-18 22:58:00,
2013-01-18 15:03:00,38.3,37.0,30.03,East,86,0.0,0.0,90,0.00,,,-99.99,wx200d/1.3,2013-01-18 23:03:00,
2013-01-18 15:08:00,38.1,36.0,30.06,East,85,0.0,0.0,90,0.00,,,-99.99,wx200d/1.3,2013-01-18 23:08:00,
2013-01-18 15:13:00,38.1,36.0,30.06,East,85,0.0,0.0,90,0.00,,,-99.99,wx200d/1.3,2013-01-18 23:13:00,
2013-01-18 15:18:00,37.9,34.0,30.06,East,81,0.0,0.0,89,0.00,,,-99.99,wx200d/1.3,2013-01-18 23:18:00,
2013-01-18 15:23:00,37.6,34.0,30.03,East,85,0.0,0.0,89,0.00,,,-99.99,wx200d/1.3,2013-01-18 23:23:00,
2013-01-18 15:28:00,37.4,34.0,30.03,ESE,116,0.0,0.0,89,0.00,,,-99.99,wx200d/1.3,2013-01-18 23:28:00,
2013-01-18 15:33:00,37.6,34.0,30.03,ESE,117,0.0,0.0,89,0.00,,,-99.99,wx200d/1.3,2013-01-18 23:33:00,
2013-01-18 15:38:00,37.8,34.0,30.06,ESE,116,0.0,0.0,89,0.00,,,-99.99,wx200d/1.3,2013-01-18 23:38:00,
2013-01-18 15:43:00,37.8,34.0,30.06,ESE,116,0.0,0.0,89,0.00,,,-99.99,wx200d/1.3,2013-01-18 23:43:00,
2013-01-18 15:48:00,37.8,34.0,30.06,ESE,117,0.0,0.0,89,0.00,,,-99.99,wx200d/1.3,2013-01-18 23:48:00,
2013-01-18 15:53:00,37.8,34.0,30.06,ESE,113,0.0,0.0,89,0.00,,,-99.99,wx200d/1.3,2013-01-18 23:53:00,
2013-01-18 15:58:00,37.6,34.0,30.06,East,98,0.0,0.0,89,0.00,,,-99.99,wx200d/1.3,2013-01-18 23:58:00,
2013-01-18 16:03:00,37.6,34.0,30.06,East,99,0.0,0.0,89,0.00,,,-99.99,wx200d/1.3,2013-01-19 00:03:00,
2013-01-18 16:08:00,37.4,34.0,30.06,East,94,0.0,0.0,88,0.00,,,-99.99,wx200d/1.3,2013-01-19 00:08:00,
2013-01-18 16:13:00,37.2,34.0,30.06,East,99,0.0,0.0,88,0.00,,,-99.99,wx200d/1.3,2013-01-19 00:13:00,
2013-01-18 16:18:00,37.0,34.0,30.06,East,96,0.0,0.0,88,0.00,,,-99.99,wx200d/1.3,2013-01-19 00:18:00,
2013-01-18 16:23:00,37.0,34.0,30.06,East,99,0.0,0.0,88,0.00,,,-99.99,wx200d/1.3,2013-01-19 00:23:00,
2013-01-18 16:28:00,36.9,34.0,30.06,ENE,72,0.0,0.0,88,0.00,,,-99.99,wx200d/1.3,2013-01-19 00:28:00,
2013-01-18 16:33:00,36.7,34.0,30.06,ENE,76,0.0,0.0,88,0.00,,,-99.99,wx200d/1.3,2013-01-19 00:33:00,
2013-01-18 16:38:00,36.5,34.0,30.03,ENE,75,0.0,0.0,88,0.00,,,-99.99,wx200d/1.3,2013-01-19 00:38:00,
2013-01-18 16:43:00,36.5,34.0,30.03,ENE,76,0.0,0.0,88,0.00,,,-99.99,wx200d/1.3,2013-01-19 00:43:00,
2013-01-18 16:48:00,36.5,34.0,30.03,ENE,77,0.0,0.0,88,0.00,,,-99.99,wx200d/1.3,2013-01-19 00:48:00,
2013-01-18 16:53:00,36.5,34.0,30.03,ENE,75,0.0,0.0,88,0.00,,,-99.99,wx200d/1.3,2013-01-19 00:53:00,
2013-01-18 16:58:00,36.5,34.0,30.03,ENE,77,0.0,0.0,89,0.00,,,-99.99,wx200d/1.3,2013-01-19 00:58:00,
2013-01-18 17:03:00,36.3,32.0,30.03,East,79,0.0,0.0,89,0.00,,,-99.99,wx200d/1.3,2013-01-19 01:03:00,
2013-01-18 17:08:00,36.1,32.0,30.03,East,79,0.0,0.0,88,0.00,,,-99.99,wx200d/1.3,2013-01-19 01:08:00,
2013-01-18 17:13:00,36.1,32.0,30.03,East,79,0.0,0.0,88,0.00,,,-99.99,wx200d/1.3,2013-01-19 01:13:00,
2013-01-18 17:18:00,36.0,32.0,30.03,ENE,74,0.0,0.0,88,0.00,,,-99.99,wx200d/1.3,2013-01-19 01:18:00,
2013-01-18 17:23:00,35.8,32.0,30.03,ENE,78,0.0,0.0,88,0.00,,,-99.99,wx200d/1.3,2013-01-19 01:23:00,
2013-01-18 17:28:00,35.8,32.0,30.03,East,79,0.0,0.0,88,0.00,,,-99.99,wx200d/1.3,2013-01-19 01:28:00,
2013-01-18 17:33:00,35.8,32.0,30.03,ENE,77,0.0,0.0,88,0.00,,,-99.99,wx200d/1.3,2013-01-19 01:33:00,
2013-01-18 17:38:00,35.8,32.0,30.03,East,79,0.0,0.0,88,0.00,,,-99.99,wx200d/1.3,2013-01-19 01:38:00,
2013-01-18 17:43:00,35.6,32.0,30.03,ENE,75,0.0,0.0,88,0.00,,,-99.99,wx200d/1.3,2013-01-19 01:43:00,
2013-01-18 17:48:00,35.6,32.0,30.03,ENE,75,0.0,0.0,88,0.00,,,-99.99,wx200d/1.3,2013-01-19 01:48:00,
2013-01-18 17:53:00,35.4,32.0,30.03,East,79,0.0,0.0,88,0.00,,,-99.99,wx200d/1.3,2013-01-19 01:53:00,
2013-01-18 17:58:00,35.4,32.0,30.03,East,79,0.0,0.0,88,0.00,,,-99.99,wx200d/1.3,2013-01-19 01:58:00,
2013-01-18 18:03:00,35.1,32.0,30.03,ENE,74,0.0,0.0,88,0.00,,,-99.99,wx200d/1.3,2013-01-19 02:03:00,
2013-01-18 18:08:00,34.9,32.0,30.03,East,80,0.0,0.0,88,0.00,,,-99.99,wx200d/1.3,2013-01-19 02:08:00,
2013-01-18 18:13:00,34.7,32.0,30.03,ENE,74,0.0,0.0,88,0.00,,,-99.99,wx200d/1.3,2013-01-19 02:13:00,
2013-01-18 18:18:00,34.5,32.0,30.03,ENE,77,0.0,0.0,88,0.00,,,-99.99,wx200d/1.3,2013-01-19 02:18:00,
2013-01-18 18:23:00,34.5,32.0,30.06,ENE,76,0.0,0.0,88,0.00,,,-99.99,wx200d/1.3,2013-01-19 02:23:00,
2013-01-18 18:28:00,34.5,32.0,30.06,East,80,0.0,0.0,89,0.00,,,-99.99,wx200d/1.3,2013-01-19 02:28:00,
2013-01-18 18:33:00,34.5,32.0,30.06,ENE,76,0.0,0.0,89,0.00,,,-99.99,wx200d/1.3,2013-01-19 02:33:00,
2013-01-18 18:38:00,34.5,32.0,30.06,ENE,78,0.0,0.0,89,0.00,,,-99.99,wx200d/1.3,2013-01-19 02:38:00,
2013-01-18 18:43:00,34.7,32.0,30.06,ENE,77,0.0,0.0,89,0.00,,,-99.99,wx200d/1.3,2013-01-19 02:43:00,
2013-01-18 18:48:00,34.5,32.0,30.06,ENE,73,0.0,0.0,89,0.00,,,-99.99,wx200d/1.3,2013-01-19 02:48:00,
2013-01-18 18:53:00,34.5,32.0,30.06,ENE,74,0.0,0.0,89,0.00,,,-99.99,wx200d/1.3,2013-01-19 02:53:00,
2013-01-18 18:58:00,34.5,32.0,30.06,ENE,74,0.0,0.0,89,0.00,,,-99.99,wx200d/1.3,2013-01-19 02:58:00,
2013-01-18 19:03:00,34.5,32.0,30.06,ENE,76,0.0,0.0,89,0.00,,,-99.99,wx200d/1.3,2013-01-19 03:03:00,
2013-01-18 19:08:00,34.5,32.0,30.06,ENE,76,0.0,0.0,89,0.00,,,-99.99,wx200d/1.3,2013-01-19 03:08:00,
2013-01-18 19:13:00,34.5,32.0,30.06,East,79,0.0,0.0,89,0.00,,,-99.99,wx200d/1.3,2013-01-19 03:13:00,
2013-01-18 19:19:00,34.3,32.0,30.06,ENE,77,0.0,0.0,89,0.00,,,-99.99,wx200d/1.3,2013-01-19 03:19:00,
2013-01-18 19:24:00,34.3,32.0,30.06,ENE,74,0.0,0.0,89,0.00,,,-99.99,wx200d/1.3,2013-01-19 03:24:00,
2013-01-18 19:29:00,34.3,32.0,30.06,East,79,0.0,0.0,89,0.00,,,-99.99,wx200d/1.3,2013-01-19 03:29:00,
2013-01-18 19:34:00,34.3,32.0,30.06,ENE,78,0.0,0.0,89,0.00,,,-99.99,wx200d/1.3,2013-01-19 03:34:00,
2013-01-18 19:39:00,34.2,32.0,30.06,ENE,75,0.0,0.0,89,0.00,,,-99.99,wx200d/1.3,2013-01-19 03:39:00,
2013-01-18 19:44:00,34.0,32.0,30.06,ENE,75,0.0,0.0,89,0.00,,,-99.99,wx200d/1.3,2013-01-19 03:44:00,
2013-01-18 19:49:00,33.8,32.0,30.06,East,79,0.0,0.0,89,0.00,,,-99.99,wx200d/1.3,2013-01-19 03:49:00,
2013-01-18 19:54:00,33.8,32.0,30.06,ENE,76,0.0,0.0,89,0.00,,,-99.99,wx200d/1.3,2013-01-19 03:54:00,
2013-01-18 19:59:00,34.0,32.0,30.06,ENE,74,0.0,0.0,89,0.00,,,-99.99,wx200d/1.3,2013-01-19 03:59:00,
2013-01-18 20:04:00,34.0,32.0,30.06,ENE,77,0.0,0.0,89,0.00,,,-99.99,wx200d/1.3,2013-01-19 04:04:00,
2013-01-18 20:09:00,34.0,32.0,30.06,ENE,76,0.0,0.0,89,0.00,,,-99.99,wx200d/1.3,2013-01-19 04:09:00,
2013-01-18 20:14:00,34.0,32.0,30.06,ENE,74,0.0,0.0,89,0.00,,,-99.99,wx200d/1.3,2013-01-19 04:14:00,
2013-01-18 20:19:00,34.2,32.0,30.06,ENE,75,0.0,0.0,89,0.00,,,-99.99,wx200d/1.3,2013-01-19 04:19:00,
2013-01-18 20:24:00,34.2,32.0,30.06,ENE,75,0.0,0.0,89,0.00,,,-99.99,wx200d/1.3,2013-01-19 04:24:00,
2013-01-18 20:29:00,34.0,32.0,30.06,East,80,0.0,0.0,89,0.00,,,-99.99,wx200d/1.3,2013-01-19 04:29:00,
2013-01-18 20:34:00,34.0,32.0,30.06,East,80,0.0,0.0,89,0.00,,,-99.99,wx200d/1.3,2013-01-19 04:34:00,
2013-01-18 20:39:00,34.2,32.0,30.06,ENE,78,0.0,0.0,89,0.00,,,-99.99,wx200d/1.3,2013-01-19 04:39:00,
2013-01-18 20:44:00,34.2,32.0,30.06,West,268,0.0,0.0,89,0.00,,,-99.99,wx200d/1.3,2013-01-19 04:44:00,
2013-01-18 20:49:00,34.2,32.0,30.06,West,274,0.0,0.0,89,0.00,,,-99.99,wx200d/1.3,2013-01-19 04:49:00,
2013-01-18 20:54:00,34.0,32.0,30.06,West,276,0.0,0.0,89,0.00,,,-99.99,wx200d/1.3,2013-01-19 04:54:00,
2013-01-18 20:59:00,34.0,32.0,30.06,WNW,292,0.0,0.0,89,0.00,,,-99.99,wx200d/1.3,2013-01-19 04:59:00,
2013-01-18 21:04:00,34.0,32.0,30.06,WNW,290,0.0,0.0,90,0.00,,,-99.99,wx200d/1.3,2013-01-19 05:04:00,
2013-01-18 21:09:00,33.8,32.0,30.06,WNW,288,0.0,0.0,90,0.00,,,-99.99,wx200d/1.3,2013-01-19 05:09:00,
2013-01-18 21:14:00,33.6,32.0,30.06,WNW,286,0.0,0.0,89,0.00,,,-99.99,wx200d/1.3,2013-01-19 05:14:00,
2013-01-18 21:19:00,33.6,32.0,30.06,WNW,291,0.0,0.0,89,0.00,,,-99.99,wx200d/1.3,2013-01-19 05:19:00,
2013-01-18 21:24:00,33.6,32.0,30.06,WNW,287,0.0,0.0,90,0.00,,,-99.99,wx200d/1.3,2013-01-19 05:24:00,
2013-01-18 21:29:00,33.6,32.0,30.06,WNW,290,0.0,0.0,90,0.00,,,-99.99,wx200d/1.3,2013-01-19 05:29:00,
2013-01-18 21:34:00,33.8,32.0,30.06,WNW,290,0.0,0.0,90,0.00,,,-99.99,wx200d/1.3,2013-01-19 05:34:00,
2013-01-18 21:39:00,33.8,32.0,30.06,WNW,293,0.0,0.0,90,0.00,,,-99.99,wx200d/1.3,2013-01-19 05:39:00,
2013-01-18 21:44:00,33.8,32.0,30.06,WNW,287,0.0,0.0,90,0.00,,,-99.99,wx200d/1.3,2013-01-19 05:44:00,
2013-01-18 21:49:00,33.8,32.0,30.06,WNW,287,0.0,0.0,90,0.00,,,-99.99,wx200d/1.3,2013-01-19 05:49:00,
2013-01-18 21:54:00,33.6,32.0,30.06,WNW,286,0.0,0.0,90,0.00,,,-99.99,wx200d/1.3,2013-01-19 05:54:00,
2013-01-18 21:59:00,33.6,32.0,30.06,WNW,287,0.0,0.0,90,0.00,,,-99.99,wx200d/1.3,2013-01-19 05:59:00,
2013-01-18 22:04:00,33.4,32.0,30.06,WNW,293,0.0,0.0,90,0.00,,,-99.99,wx200d/1.3,2013-01-19 06:04:00,
2013-01-18 22:09:00,33.4,32.0,30.06,WNW,286,0.0,0.0,90,0.00,,,-99.99,wx200d/1.3,2013-01-19 06:09:00,
2013-01-18 22:14:00,33.6,32.0,30.06,WNW,292,0.0,0.0,90,0.00,,,-99.99,wx200d/1.3,2013-01-19 06:14:00,
2013-01-18 22:19:00,33.4,32.0,30.06,WNW,286,0.0,0.0,91,0.00,,,-99.99,wx200d/1.3,2013-01-19 06:19:00,
2013-01-18 22:24:00,33.3,32.0,30.06,WNW,288,0.0,0.0,90,0.00,,,-99.99,wx200d/1.3,2013-01-19 06:24:00,
2013-01-18 22:29:00,33.3,32.0,30.06,WNW,288,0.0,0.0,90,0.00,,,-99.99,wx200d/1.3,2013-01-19 06:29:00,
2013-01-18 22:34:00,33.3,32.0,30.06,WNW,289,0.0,0.0,91,0.00,,,-99.99,wx200d/1.3,2013-01-19 06:34:00,
2013-01-18 22:39:00,33.4,32.0,30.06,WNW,287,0.0,0.0,91,0.00,,,-99.99,wx200d/1.3,2013-01-19 06:39:00,
2013-01-18 22:44:00,33.3,32.0,30.06,WNW,292,0.0,0.0,91,0.00,,,-99.99,wx200d/1.3,2013-01-19 06:44:00,
2013-01-18 22:49:00,33.3,32.0,30.06,WNW,291,0.0,0.0,91,0.00,,,-99.99,wx200d/1.3,2013-01-19 06:49:00,
2013-01-18 22:54:00,33.1,32.0,30.06,WNW,287,0.0,0.0,91,0.00,,,-99.99,wx200d/1.3,2013-01-19 06:54:00,
2013-01-18 22:59:00,33.1,32.0,30.06,WNW,290,0.0,0.0,91,0.00,,,-99.99,wx200d/1.3,2013-01-19 06:59:00,
2013-01-18 23:04:00,33.3,32.0,30.06,WNW,290,0.0,0.0,91,0.00,,,-99.99,wx200d/1.3,2013-01-19 07:04:00,
2013-01-18 23:09:00,33.3,32.0,30.06,WNW,286,0.0,0.0,91,0.00,,,-99.99,wx200d/1.3,2013-01-19 07:09:00,
2013-01-18 23:14:00,33.3,32.0,30.06,WNW,292,0.0,0.0,91,0.00,,,-99.99,wx200d/1.3,2013-01-19 07:14:00,
2013-01-18 23:19:00,33.3,32.0,30.06,WNW,287,0.0,0.0,91,0.00,,,-99.99,wx200d/1.3,2013-01-19 07:19:00,
2013-01-18 23:24:00,33.3,32.0,30.06,WNW,292,0.0,0.0,91,0.00,,,-99.99,wx200d/1.3,2013-01-19 07:24:00,
2013-01-18 23:29:00,33.3,32.0,30.06,WNW,292,0.0,0.0,91,0.00,,,-99.99,wx200d/1.3,2013-01-19 07:29:00,
2013-01-18 23:34:00,33.3,32.0,30.06,WNW,293,0.0,0.0,91,0.00,,,-99.99,wx200d/1.3,2013-01-19 07:34:00,
2013-01-18 23:39:00,33.1,32.0,30.06,WNW,288,0.0,0.0,91,0.00,,,-99.99,wx200d/1.3,2013-01-19 07:39:00,
2013-01-18 23:44:00,33.1,32.0,30.06,WNW,287,0.0,0.0,91,0.00,,,-99.99,wx200d/1.3,2013-01-19 07:44:00,
2013-01-18 23:49:00,33.1,32.0,30.06,WNW,289,0.0,0.0,91,0.00,,,-99.99,wx200d/1.3,2013-01-19 07:49:00,
2013-01-18 23:54:00,33.1,32.0,30.06,WNW,287,0.0,0.0,91,0.00,,,-99.99,wx200d/1.3,2013-01-19 07:54:00,